Date,TemperatureHighF,TemperatureAvgF,TemperatureLowF,DewpointHighF,DewpointAvgF,DewpointLowF,HumidityHigh,HumidityAvg,HumidityLow,PressureMaxIn,PressureMinIn,WindSpeedMaxMPH,WindSpeedAvgMPH,GustSpeedMaxMPH,PrecipitationSumIn
2013-1-1,24.6,13.5,2.3,24.4,11.4,0.3,99,91,82,29.67,29.47,19,9,0,0.00
2013-1-2,5.7,-4.3,-14.1,1.4,-7.5,-16.6,92,86,78,30.00,29.68,15,5,0,0.00
2013-1-3,9.3,-5.7,-18.8,1.4,-9.3,-21.2,93,85,53,30.04,29.75,9,2,0,0.00
2013-1-4,25.2,18.5,3.2,25.0,17.7,1.6,99,97,91,29.75,29.53,16,6,0,0.00
2013-1-5,24.8,17.4,-2.7,24.6,15.4,-4.2,99,92,79,30.10,29.56,26,6,0,0.00
2013-1-6,28.2,22.6,9.5,24.3,21.1,8.8,99,94,79,29.90,29.76,0,0,0,0.00
2013-1-7,21.9,8.7,-7.2,21.7,7.1,-8.9,99,93,75,30.23,29.82,0,0,0,0.00
2013-1-8,32.5,20.4,-6.5,26.5,18.0,-7.8,98,91,72,30.26,30.05,11,2,0,0.00
2013-1-9,29.3,24.5,18.3,26.5,23.5,18.1,99,96,79,30.28,30.19,3,1,0,0.00
2013-1-11,36.0,29.6,15.8,25.7,22.3,12.9,91,74,54,30.35,30.06,9,4,0,0.00
2013-1-12,43.0,33.1,27.5,37.6,32.0,26.5,99,96,81,30.07,29.97,5,2,0,0.17
2013-1-13,51.1,37.3,27.7,44.2,34.8,27.5,99,92,70,30.06,29.82,6,2,0,0.01
2013-1-14,47.1,39.6,32.9,46.8,36.7,25.7,99,90,64,30.06,29.81,16,10,0,0.01
2013-1-15,26.4,23.7,14.5,21.9,19.5,13.6,99,84,76,30.21,30.13,12,4,0,0.00
2013-1-16,26.6,23.9,17.2,26.2,22.4,16.7,99,94,86,30.02,29.63,6,2,0,0.00
2013-1-17,27.0,12.8,-6.2,25.9,9.1,-9.5,99,85,55,30.02,29.61,16,4,0,0.00
2013-1-18,8.2,-3.5,-17.0,-4.3,-10.4,-19.1,92,74,48,30.17,29.96,16,4,0,0.00
2013-1-19,29.3,17.8,-0.8,25.5,15.0,-4.0,96,89,77,30.10,29.67,6,1,0,0.00
2013-1-20,41.9,24.2,3.4,32.0,19.8,-2.2,99,84,59,29.73,29.27,25,9,0,0.00
2013-1-21,10.2,2.3,-6.5,-1.5,-4.9,-9.1,91,72,52,29.86,29.70,16,5,0,0.00
2013-1-22,10.2,0.5,-9.0,2.5,-3.4,-12.9,93,83,68,29.82,29.62,19,5,0,0.00
2013-1-23,-8.9,-14.8,-23.1,-14.3,-20.5,-26.2,85,75,58,29.92,29.82,16,6,0,0.00
2013-1-24,-1.7,-11.7,-23.1,-11.6,-17.2,-26.2,86,76,51,30.06,29.81,23,7,0,0.00
2013-1-25,7.0,-2.7,-8.0,-4.9,-7.9,-11.8,85,78,57,30.10,29.91,14,4,0,0.00
2013-1-26,7.9,0.1,-12.5,0.3,-6.3,-15.0,91,75,52,30.05,29.89,11,4,0,0.00
2013-1-27,10.0,0.3,-10.8,-0.2,-5.1,-13.3,89,78,54,30.34,30.05,18,5,0,0.00
2013-1-28,27.0,6.9,-11.9,14.3,0.5,-14.7,95,78,31,30.32,29.92,5,1,0,0.00
2013-1-29,37.6,20.3,0.1,25.2,14.7,-1.2,97,81,48,30.08,29.93,10,2,0,0.02
2013-1-30,51.1,41.2,27.7,50.4,40.7,25.7,99,98,91,29.93,29.24,8,4,0,0.23
2013-1-31,48.0,33.0,10.9,47.7,29.7,8.0,99,88,59,29.30,28.69,38,10,0,0.73
2013-2-1,11.1,5.4,-0.6,8.8,2.0,-3.5,92,85,77,29.89,29.29,15,8,0,0.00
2013-2-2,16.3,6.2,-6.7,9.2,1.6,-9.1,96,82,57,29.97,29.87,13,3,0,0.00
2013-2-3,30.0,8.6,-5.6,10.7,1.6,-7.3,96,77,32,29.89,29.57,5,1,0,0.00
2013-2-4,16.0,6.3,-1.7,9.3,1.2,-10.7,97,80,46,29.70,29.49,21,6,0,0.00
2013-2-5,17.6,2.0,-11.2,-2.2,-8.1,-14.2,87,65,32,29.85,29.71,9,3,0,0.00
2013-2-6,24.3,11.4,-1.8,18.3,3.2,-10.3,92,70,37,30.15,29.75,19,6,0,0.00
2013-2-7,11.3,-2.3,-11.0,-7.6,-13.9,-18.0,82,60,26,30.38,30.15,9,3,0,0.00
2013-2-8,15.8,9.4,3.2,10.3,3.4,-12.1,88,77,46,30.33,29.87,14,6,0,0.00
2013-2-9,9.7,5.6,-4.0,7.2,1.7,-6.0,91,84,78,30.13,29.81,14,4,0,0.00
2013-2-10,26.6,4.6,-15.3,6.8,-3.9,-18.2,94,72,32,30.29,30.13,9,2,0,0.00
2013-2-11,30.0,20.6,-1.8,29.8,15.1,-3.3,99,82,42,30.20,29.45,10,3,0,0.00
2013-2-12,31.6,29.2,26.4,31.3,28.4,25.4,99,97,91,29.66,29.42,20,8,0,0.00
2013-2-13,30.9,25.1,20.5,25.5,23.0,20.3,99,92,74,29.70,29.64,18,5,0,0.00
2013-2-14,30.7,23.9,18.5,23.7,20.0,17.8,99,86,62,29.86,29.62,9,1,0,0.00
2013-2-15,39.4,29.4,18.5,30.3,23.8,17.6,97,80,61,29.85,29.71,11,3,0,0.07
2013-2-16,27.1,20.9,10.2,19.6,13.1,5.3,96,72,49,29.86,29.76,12,4,0,0.00
2013-2-17,10.0,7.3,3.6,5.8,2.6,-0.1,89,81,72,29.75,29.35,26,7,0,0.00
2013-2-18,14.9,4.8,-2.0,2.6,-2.1,-6.9,88,74,51,29.99,29.51,28,9,0,0.00
2013-2-19,41.7,19.1,-5.6,23.7,3.8,-8.5,89,58,18,30.02,29.60,10,3,0,0.01
2013-2-20,22.8,19.1,15.3,20.6,17.8,14.6,98,95,88,29.52,29.38,19,11,0,0.00
2013-2-21,19.0,10.5,4.3,18.8,8.4,2.5,99,91,77,30.15,29.52,16,5,0,0.00
2013-2-22,40.1,22.9,12.7,24.4,18.9,12.2,99,86,49,30.32,30.16,9,2,0,0.06
2013-2-23,30.7,26.0,21.0,27.3,23.4,18.3,99,90,79,30.20,29.84,8,4,0,0.00
2013-2-24,36.3,29.5,26.1,29.5,27.0,24.6,99,90,74,29.83,29.66,10,2,0,0.04
2013-2-25,41.7,28.9,19.0,27.7,24.6,18.8,99,85,56,30.15,29.80,8,1,0,0.07
2013-2-26,48.0,32.6,24.3,28.5,25.1,23.1,99,76,43,30.24,30.12,5,2,0,0.23
2013-2-27,33.6,28.4,26.2,27.9,24.7,21.2,98,86,75,30.12,29.58,18,7,0,0.00
2013-2-28,42.4,31.8,26.2,34.2,29.5,25.2,99,92,70,29.59,29.46,8,3,0,0.12
2013-3-1,35.1,28.0,24.1,29.3,26.3,23.6,99,94,76,29.61,29.46,6,2,0,0.01
2013-3-2,29.3,25.3,23.0,26.7,24.6,22.8,99,97,87,29.61,29.56,9,3,0,0.00
2013-3-3,29.3,23.2,19.2,25.5,22.2,19.0,99,96,84,29.59,29.49,0,0,0,0.00
2013-3-4,22.5,18.5,17.2,19.0,17.6,16.6,99,96,83,29.73,29.50,0,0,0,0.00
2013-3-5,41.7,27.8,17.6,32.9,25.8,17.4,99,92,69,30.04,29.74,10,1,0,0.08
2013-3-6,37.8,30.2,24.8,29.1,25.1,20.1,97,82,63,30.17,30.03,11,6,0,0.04
2013-3-7,30.9,26.1,23.0,21.9,20.1,18.3,84,78,67,30.16,30.05,14,6,0,0.00
2013-3-8,45.3,30.6,18.3,23.2,20.3,17.3,97,69,36,30.21,30.04,9,3,0,0.06
2013-3-9,53.4,28.3,5.5,24.2,17.1,4.6,99,70,28,30.29,30.18,10,2,0,0.00
2013-3-10,52.5,32.9,15.4,27.1,21.4,15.2,99,68,28,30.28,30.09,7,2,0,0.00
2013-3-11,54.7,40.7,30.9,29.8,27.1,23.9,85,61,32,30.12,29.95,6,3,0,0.00
2013-3-12,42.1,40.5,35.1,41.8,40.0,34.8,99,98,96,29.88,29.63,10,5,0,0.33
2013-3-13,36.9,32.1,26.1,33.7,28.7,22.5,99,87,64,29.72,29.61,9,4,0,0.03
2013-3-14,26.4,20.2,8.6,25.3,16.7,5.0,99,86,69,29.70,29.56,14,6,0,0.00
2013-3-15,29.8,16.6,5.0,20.3,9.3,2.7,97,76,36,29.70,29.45,10,4,0,0.00
2013-3-16,23.4,15.3,0.0,17.1,9.7,-1.1,96,80,54,29.77,29.53,11,4,0,0.01
2013-3-17,20.3,6.8,-6.2,8.5,-2.0,-8.1,96,70,35,30.17,29.75,22,4,0,0.00
2013-3-18,31.6,13.2,-8.0,5.1,-3.4,-10.4,89,53,22,30.28,30.09,12,3,0,0.00
2013-3-19,23.7,20.4,17.1,19.1,15.0,0.8,98,82,37,30.09,29.63,18,6,0,0.00
2013-3-20,25.0,20.3,15.3,22.9,19.3,14.8,99,96,87,29.60,29.46,12,4,0,0.00
2013-3-21,39.7,22.7,6.4,20.9,15.9,5.3,97,78,38,29.57,29.48,11,3,0,0.01
2013-3-22,33.6,17.3,1.0,21.1,12.4,-0.3,97,82,56,29.55,29.49,14,4,0,0.00
2013-3-23,27.1,23.4,18.3,26.3,22.4,17.6,99,96,88,29.61,29.40,23,9,0,0.00
2013-3-24,34.7,27.5,17.8,29.0,25.3,17.6,99,92,76,29.72,29.60,14,4,0,0.01
2013-3-25,49.5,29.8,10.2,27.4,21.5,10.0,99,74,42,29.71,29.51,9,3,0,0.11
2013-3-26,39.7,30.5,16.5,27.1,23.1,15.8,99,75,57,29.67,29.53,11,4,0,0.00
2013-3-27,37.8,29.8,17.1,32.7,26.9,16.6,99,89,70,29.83,29.65,11,2,0,0.01
2013-3-28,44.2,34.9,28.0,34.6,31.5,27.8,99,88,64,29.95,29.82,10,2,0,0.05
2013-3-29,44.8,36.1,31.3,34.9,31.8,28.5,99,85,58,29.96,29.89,14,5,0,0.02
2013-3-30,45.1,32.9,20.7,30.3,20.7,13.6,99,67,29,30.02,29.94,16,3,0,0.00
2013-3-31,49.5,33.5,13.5,27.7,19.7,13.0,99,63,30,30.02,29.68,8,2,0,0.00
2013-4-1,45.5,33.7,19.9,37.4,30.7,16.1,99,89,69,29.67,29.39,14,5,0,0.05
2013-4-2,24.4,18.6,14.0,18.0,13.5,9.9,98,81,57,29.66,29.56,28,11,0,0.00
2013-4-3,25.5,21.0,15.6,19.5,14.9,10.6,96,77,64,29.98,29.65,21,11,0,0.00
2013-4-4,46.2,30.8,18.7,18.4,13.1,9.4,73,51,24,30.09,29.83,17,7,0,0.00
2013-4-5,40.6,32.5,23.9,27.5,21.2,14.9,77,63,42,29.82,29.65,16,5,0,0.00
2013-4-6,31.1,21.3,13.5,15.3,6.8,2.2,78,55,33,30.22,29.78,18,6,0,0.00
2013-4-7,46.9,33.0,16.0,32.2,18.2,7.9,81,55,38,30.22,29.76,13,3,0,0.00
2013-4-8,46.4,38.4,33.3,34.2,32.7,31.0,99,81,56,30.06,29.78,14,9,0,0.01
2013-4-9,39.0,34.9,33.1,38.7,34.6,32.8,99,99,96,29.98,29.79,11,4,0,0.42
2013-4-10,45.5,37.5,31.3,39.3,34.1,29.5,99,88,65,29.92,29.83,9,2,0,0.07
2013-4-11,39.9,31.9,23.7,30.0,20.1,13.6,99,65,36,30.13,29.83,11,4,0,0.00
2013-4-12,28.9,26.6,21.7,27.1,20.0,12.5,99,77,54,30.16,29.77,16,5,0,0.00
2013-4-13,46.9,34.6,27.1,36.5,31.4,25.8,99,89,66,29.81,29.69,7,2,0,0.39
2013-4-14,44.6,37.6,27.3,36.4,32.3,27.1,99,82,59,30.13,29.81,11,4,0,0.12
2013-4-15,58.1,39.4,21.9,32.3,27.9,21.7,99,69,34,30.29,30.13,7,2,0,0.00
2013-4-16,52.7,45.4,36.1,49.0,40.0,31.0,99,82,60,30.24,29.84,14,4,0,0.26
2013-4-17,53.1,39.5,27.1,41.6,28.8,18.2,99,69,35,30.32,29.96,12,5,0,0.00
2013-4-18,48.4,37.9,25.0,40.2,27.4,20.0,90,67,45,30.35,29.90,11,4,0,0.00
2013-4-19,70.3,58.4,44.1,55.5,50.0,39.8,99,75,46,29.90,29.46,17,4,0,0.45
2013-4-20,43.7,38.2,28.4,42.9,30.7,21.8,99,77,47,30.10,29.58,21,8,0,0.51
2013-4-21,44.1,30.4,21.9,23.7,18.7,12.8,93,65,30,30.64,30.13,20,6,0,0.00
2013-4-22,53.1,35.0,17.1,23.2,18.9,15.7,99,58,26,30.70,30.50,9,3,0,0.01
2013-4-23,47.8,37.4,26.4,35.9,27.1,18.0,92,67,45,30.55,30.13,7,4,0,0.00
2013-4-24,73.8,51.7,37.8,51.6,41.0,29.9,99,73,26,30.11,29.60,6,2,0,0.00
2013-4-25,53.6,41.9,26.1,50.2,32.1,21.6,94,70,34,30.27,29.58,20,7,0,0.04
2013-4-26,58.3,38.8,21.9,34.2,27.0,21.7,99,69,31,30.39,30.26,11,2,0,0.00
2013-4-27,61.7,42.0,27.3,37.3,28.7,22.6,99,67,24,30.39,30.18,9,2,0,0.00
2013-4-28,72.9,49.4,26.2,36.5,30.5,26.0,99,56,21,30.29,30.08,6,2,0,0.00
2013-4-29,71.1,53.0,34.3,40.6,36.1,31.0,92,56,31,30.18,30.06,7,2,0,0.00
2013-4-30,70.9,54.3,36.1,46.7,41.0,35.4,99,65,33,30.28,30.17,6,1,0,0.00
2013-5-1,77.7,56.8,34.0,46.4,39.1,32.0,95,56,28,30.40,30.29,5,1,0,0.00
2013-5-2,75.4,55.3,35.4,43.5,39.2,31.6,99,60,30,30.41,30.32,7,2,0,0.00
2013-5-3,73.4,53.9,38.8,43.5,37.8,30.4,83,57,32,30.49,30.25,7,2,0,0.00
2013-5-4,79.2,56.6,34.2,45.5,37.1,31.5,99,56,21,30.34,30.12,8,2,0,0.00
2013-5-5,82.6,57.9,34.3,43.2,37.1,33.2,97,52,22,30.23,30.03,6,2,0,0.00
2013-5-6,78.8,57.0,37.2,47.2,38.1,35.3,99,57,22,30.17,29.94,7,1,0,0.00
2013-5-7,82.9,60.1,37.9,45.5,35.8,29.9,93,48,16,30.11,29.95,11,2,0,0.00
2013-5-8,77.7,60.7,40.5,54.5,44.8,34.1,92,60,30,30.15,30.01,7,2,0,0.01
2013-5-9,69.1,58.6,54.7,61.2,56.4,54.4,99,93,61,30.04,29.82,7,3,0,0.98
2013-5-10,70.5,62.5,54.7,58.8,54.2,50.1,99,77,51,29.91,29.81,8,3,0,0.00
2013-5-11,64.2,56.6,49.3,60.2,55.4,49.0,99,96,87,29.81,29.55,7,2,0,0.14
2013-5-12,58.3,48.2,37.8,51.5,44.0,28.9,99,86,62,29.65,29.49,14,3,0,0.00
2013-5-13,45.5,37.9,31.6,32.0,28.3,25.9,87,69,51,29.96,29.63,23,7,0,0.00
2013-5-14,50.4,38.8,27.3,32.3,27.6,24.1,99,68,37,29.99,29.89,11,3,0,0.00
2013-5-15,63.5,44.2,26.2,47.7,32.7,22.6,99,72,25,29.95,29.53,8,2,0,0.20
2013-5-16,62.6,50.5,41.7,50.5,43.5,39.8,99,79,46,29.79,29.51,18,5,0,0.00
2013-5-17,57.0,46.4,36.9,42.1,39.7,36.4,99,80,49,30.17,29.78,11,4,0,0.03
2013-5-18,67.5,49.1,31.6,44.9,37.6,31.4,99,70,33,30.26,30.14,11,2,0,0.00
2013-5-19,70.2,53.7,34.3,49.5,40.6,31.7,99,68,27,30.28,30.07,7,2,0,0.08
2013-5-20,70.2,56.2,50.0,59.3,53.2,49.7,99,91,63,30.07,29.89,14,3,0,1.12
2013-5-21,55.9,51.5,47.1,55.0,50.8,46.8,99,97,90,30.00,29.83,14,4,0,0.78
2013-5-22,64.2,52.8,46.8,59.1,51.7,46.5,99,96,81,29.86,29.77,10,4,0,0.27
2013-5-23,71.8,61.1,51.8,65.8,59.0,51.5,99,93,78,29.80,29.64,13,3,0,1.45
2013-5-24,56.3,48.4,41.4,56.0,48.1,41.1,99,99,99,29.89,29.62,9,3,0,0.62
2013-5-25,41.5,38.3,33.8,41.2,38.0,33.5,99,99,98,29.90,29.72,13,5,0,0.84
2013-5-26,45.1,38.4,34.0,44.8,38.0,33.7,99,98,92,29.96,29.69,12,4,0,0.18
2013-5-27,60.8,44.9,29.8,42.1,35.1,29.6,99,74,37,30.14,29.95,21,4,0,0.02
2013-5-28,73.2,53.4,31.3,44.0,37.6,31.1,99,62,27,30.20,30.04,8,2,0,0.00
2013-5-29,55.9,53.5,47.8,55.6,48.6,38.7,99,84,61,30.12,29.89,7,2,0,0.08
2013-5-30,77.0,64.8,55.4,61.9,59.4,55.1,99,84,56,30.03,29.91,16,5,0,0.01
2013-5-31,86.2,69.8,51.3,67.7,61.1,51.0,99,77,48,30.05,29.79,18,4,0,0.00
2013-6-1,85.8,71.5,55.4,67.0,61.6,55.1,99,74,46,29.92,29.75,16,3,0,0.00
2013-6-2,85.1,71.2,62.4,70.2,65.7,62.1,99,85,57,29.83,29.59,13,3,0,0.23
2013-6-12,56.3,54.0,50.5,54.5,52.6,50.2,99,95,91,29.80,29.59,12,3,0,0.14
2013-6-13,72.7,58.5,48.0,58.3,50.9,46.0,99,79,39,29.79,29.63,6,1,0,0.00
2013-6-14,74.1,59.4,46.4,55.4,48.2,42.2,99,71,35,29.77,29.63,14,2,0,0.00
2013-6-15,67.6,55.8,39.4,45.4,41.7,38.4,97,63,40,29.89,29.75,16,5,0,0.01
2013-6-16,70.0,56.4,42.6,56.0,49.4,41.0,99,80,44,29.88,29.66,9,2,0,0.45
2013-6-17,68.9,59.5,53.2,58.6,53.8,49.3,99,83,61,29.86,29.69,16,5,0,0.00
2013-6-18,68.5,54.7,41.0,49.3,44.4,40.5,99,71,38,29.95,29.84,10,2,0,0.00
2013-6-19,67.6,53.7,40.8,48.2,42.3,37.9,99,70,39,30.14,29.93,15,3,0,0.00
2013-6-20,75.4,56.7,37.9,48.7,42.8,37.6,99,65,33,30.22,30.07,14,2,0,0.00
2013-6-21,79.3,59.9,44.1,53.0,48.8,42.8,97,71,40,30.21,30.09,13,3,0,0.00
2013-6-22,71.8,61.5,52.7,61.5,57.1,50.0,99,86,67,30.20,30.08,8,1,0,0.02
2013-6-23,80.1,67.8,58.8,68.6,64.5,58.4,99,90,68,30.12,29.92,8,2,0,0.74
2013-6-24,81.7,70.6,64.9,69.2,66.8,64.6,99,89,63,29.94,29.80,14,5,0,0.13
2013-6-25,82.8,71.9,64.4,69.4,65.6,61.3,97,81,64,29.85,29.70,11,3,0,0.00
2013-6-26,73.4,67.2,59.7,67.7,64.2,59.3,99,91,79,29.77,29.71,8,2,0,0.05
2013-6-27,82.9,69.0,61.0,68.4,63.9,60.6,99,85,60,29.77,29.71,10,3,0,0.06
2013-6-28,68.4,61.3,56.7,61.3,58.2,55.0,96,90,77,29.76,29.43,11,5,0,0.31
2013-6-29,78.8,66.0,60.4,66.7,62.7,59.6,99,90,61,29.63,29.45,8,2,0,0.18
2013-6-30,80.6,67.4,57.4,64.4,61.6,57.1,99,83,58,29.91,29.64,13,3,0,0.00
2013-7-1,75.0,66.5,60.3,64.5,60.8,54.8,99,83,64,30.09,29.90,7,2,0,0.13
2013-7-2,62.4,59.4,56.7,60.1,58.0,55.0,99,95,87,30.16,30.06,10,5,0,0.84
2013-7-3,79.0,67.8,58.8,72.9,65.2,57.7,99,92,73,30.14,30.08,7,1,0,0.40
2013-7-4,83.5,71.4,61.2,71.7,67.1,60.9,99,88,60,30.16,30.02,10,2,0,0.08
2013-7-5,83.8,73.6,66.0,69.8,67.6,64.8,99,83,62,30.09,29.93,13,5,0,0.00
2013-7-6,79.9,70.6,64.8,67.9,65.3,59.8,99,85,54,30.01,29.86,13,4,0,0.00
2013-7-7,79.5,69.2,57.0,65.6,62.2,56.7,99,80,55,29.98,29.88,12,4,0,0.02
2013-7-8,79.7,67.3,63.1,69.5,65.1,62.8,99,93,70,30.02,29.90,3,1,0,0.44
2013-7-9,82.9,69.4,63.5,71.2,65.3,62.6,97,87,68,30.06,29.95,8,3,0,0.00
2013-7-10,73.6,68.4,63.7,67.4,65.0,62.5,97,89,80,30.00,29.70,6,2,0,0.00
2013-7-11,76.5,66.3,55.2,66.7,61.1,52.9,99,85,51,29.99,29.69,11,2,0,0.56
2013-7-12,83.3,64.2,48.4,57.0,53.3,47.9,99,72,36,30.18,30.00,7,1,0,0.00
2013-7-13,85.8,70.1,53.2,62.5,58.2,51.6,99,69,40,30.28,30.18,7,2,0,0.00
2013-7-14,87.8,72.0,59.2,67.5,62.8,58.2,98,75,46,30.29,30.13,8,2,0,0.00
2013-7-15,86.0,72.0,59.5,69.2,64.1,59.2,99,78,52,30.19,30.04,14,3,0,0.00
2013-7-16,88.0,73.0,61.5,68.2,62.7,57.6,99,73,39,30.18,30.09,9,2,0,0.00
2013-7-17,88.0,73.2,59.0,69.7,64.7,57.3,98,77,49,30.17,29.90,21,4,0,0.02
2013-7-18,83.3,72.0,65.1,69.2,66.5,64.8,99,84,60,30.01,29.88,12,3,0,0.11
2013-7-19,88.5,75.3,64.6,72.7,68.3,64.3,99,82,53,29.91,29.54,22,6,0,0.00
2013-7-20,76.1,67.9,55.4,67.7,63.3,53.2,96,86,64,29.79,29.57,17,4,0,0.09
2013-7-21,73.9,59.9,47.5,55.0,49.6,44.4,97,71,43,30.03,29.79,11,3,0,0.00
2013-7-22,82.8,62.7,43.2,63.2,52.8,42.1,97,73,44,30.05,29.82,7,2,0,0.00
2013-7-23,74.7,65.8,59.7,66.0,62.1,58.8,99,88,74,29.86,29.49,6,2,0,0.34
2013-7-24,64.4,58.2,50.5,63.9,55.5,45.8,99,91,75,30.00,29.53,11,4,0,0.13
2013-7-25,76.5,59.1,46.9,54.3,48.7,42.0,86,70,41,30.11,29.99,6,2,0,0.00
2013-7-26,69.6,60.5,54.0,57.0,53.1,50.2,87,77,62,30.09,30.00,8,2,0,0.00
2013-7-27,85.5,71.6,60.8,61.8,57.8,54.6,85,64,37,30.01,29.91,11,3,0,0.00
2013-7-28,77.9,68.2,57.0,63.9,59.9,54.7,93,76,52,30.00,29.92,9,3,0,0.00
2013-7-29,77.0,67.0,59.4,64.1,60.8,55.5,97,82,59,30.04,29.91,10,2,0,0.74
2013-7-30,72.3,62.0,54.5,56.1,53.5,51.3,94,76,51,30.06,29.97,12,4,0,0.00
2013-7-31,78.4,63.5,49.3,58.4,53.9,47.9,98,74,44,30.10,29.93,11,3,0,0.00
2013-8-1,78.6,64.7,50.9,60.0,56.2,50.4,99,76,50,30.01,29.78,6,2,0,0.01
2013-8-2,73.9,66.2,61.2,61.5,57.5,52.1,96,75,48,29.79,29.68,17,4,0,0.09
2013-8-3,68.0,62.6,56.8,56.6,54.7,52.3,92,76,62,29.76,29.68,14,6,0,0.11
2013-8-4,66.4,58.5,51.8,57.0,52.9,48.4,97,82,63,29.83,29.73,11,5,0,0.15
2013-8-5,65.1,54.1,44.8,50.1,45.6,38.1,97,76,38,30.00,29.82,15,5,0,0.09
2013-8-6,79.2,59.7,43.3,53.2,48.4,42.6,99,71,34,30.11,29.99,9,2,0,0.00
2013-8-7,78.4,63.0,46.6,58.3,52.8,46.1,99,72,46,30.16,29.99,5,2,0,0.00
2013-8-8,81.1,67.5,59.0,65.9,61.1,54.8,97,81,60,30.02,29.92,7,2,0,0.12
2013-8-9,74.1,67.4,64.0,70.0,65.9,63.4,99,95,85,29.95,29.69,5,2,0,0.34
2013-8-10,66.0,61.5,53.1,65.5,53.5,47.1,99,76,56,29.96,29.71,16,7,0,0.00
2013-8-11,71.8,58.1,44.8,53.5,48.7,43.5,99,73,45,30.02,29.89,14,3,0,0.00
2013-8-12,73.6,60.6,49.8,55.5,50.9,48.0,97,73,44,29.98,29.84,9,3,0,0.00
2013-8-13,73.9,59.8,48.6,60.0,54.9,47.8,99,85,60,29.88,29.61,8,1,0,0.00
2013-8-14,62.8,57.2,52.0,57.3,51.4,46.0,89,81,66,29.84,29.59,14,5,0,0.00
2013-8-15,68.9,56.1,44.6,50.6,46.9,42.7,95,73,49,30.05,29.84,14,5,0,0.00
2013-8-16,72.7,59.4,45.9,54.5,50.5,44.8,97,75,49,30.13,30.04,13,3,0,0.41
2013-8-17,73.9,61.1,46.0,56.2,49.0,43.8,99,68,40,30.26,30.16,12,3,0,0.01
2013-8-18,76.3,58.8,41.7,55.9,49.9,41.4,99,76,45,30.27,30.00,12,2,0,0.00
2013-8-19,76.8,63.3,48.4,59.6,55.1,48.1,99,77,55,30.04,29.87,16,4,0,0.00
2013-8-20,78.1,66.2,55.2,60.1,56.9,54.2,97,75,46,30.08,29.96,12,3,0,0.00
2013-8-21,82.4,67.6,55.4,62.9,58.5,54.6,99,76,48,30.12,29.94,14,3,0,0.00
2013-8-22,78.6,67.0,56.3,66.0,61.2,56.0,99,83,62,29.99,29.74,12,3,0,0.13
2013-8-23,69.8,59.0,44.4,60.6,49.9,42.1,96,75,42,30.17,29.79,10,4,0,0.01
2013-8-24,75.9,57.6,42.4,50.7,45.7,40.5,99,70,30,30.32,30.17,8,2,0,0.00
2013-8-25,77.0,59.0,45.0,53.2,48.9,43.4,99,73,37,30.36,30.08,8,2,0,0.00
2013-8-26,65.5,60.7,56.5,64.3,59.3,51.4,99,95,81,30.09,29.84,9,2,0,0.22
2013-8-27,83.3,68.6,60.4,65.7,62.4,59.4,99,83,47,29.89,29.81,7,2,0,0.00
2013-8-28,78.8,67.6,59.9,67.9,62.7,59.0,99,86,62,29.97,29.84,8,2,0,0.17
2013-8-29,78.3,64.5,60.4,61.6,58.8,55.6,93,82,55,30.07,29.97,8,3,0,0.00
2013-8-30,76.1,65.5,59.7,65.6,60.3,56.1,95,84,67,29.98,29.74,12,3,0,0.57
2013-8-31,75.2,69.7,63.5,66.4,64.9,63.2,99,85,73,29.78,29.71,5,1,0,0.00
2013-9-1,84.4,69.2,61.3,65.2,61.9,58.6,99,80,43,29.87,29.74,8,2,0,0.02
2013-9-2,68.4,65.6,61.5,62.5,61.1,59.6,97,86,79,29.87,29.69,12,4,0,0.43
2013-9-3,68.4,61.1,55.6,62.2,59.3,55.3,99,94,74,29.75,29.67,8,2,0,0.03
2013-9-4,68.2,61.6,56.5,53.0,50.7,47.5,88,68,50,29.82,29.76,13,8,0,0.00
2013-9-5,59.2,50.1,37.4,43.4,37.1,33.4,90,63,46,30.09,29.92,16,4,0,0.00
2013-9-6,64.6,48.6,31.8,40.6,36.3,31.0,98,67,36,30.17,29.98,14,4,0,0.00
2013-9-7,70.5,55.4,42.4,50.8,45.3,38.4,94,72,42,29.99,29.75,14,3,0,0.01
2013-9-8,55.9,49.4,33.8,53.5,42.7,30.6,98,79,51,30.02,29.69,13,4,0,0.16
2013-9-9,67.5,47.9,31.8,44.9,38.5,30.1,99,74,39,30.14,30.00,9,2,0,0.00
2013-9-10,64.6,55.6,45.5,60.9,52.8,42.2,99,90,85,30.05,29.96,3,0,0,0.11
2013-9-11,87.1,73.6,60.3,72.3,66.1,60.0,99,80,49,29.98,29.82,14,4,0,0.23
2013-9-12,73.0,67.4,62.4,68.6,65.4,62.1,99,93,84,29.86,29.60,5,1,0,0.22
2013-9-13,62.8,56.3,50.2,62.5,55.8,49.9,99,98,94,29.74,29.58,8,2,0,0.61
2013-9-14,52.5,48.5,46.2,50.5,48.0,45.9,99,98,93,30.01,29.73,11,4,0,0.33
2013-9-15,64.6,50.9,36.9,51.3,45.7,36.6,99,84,62,30.07,29.95,10,3,0,0.01
2013-9-16,52.0,45.0,31.3,49.9,41.4,29.3,97,88,65,30.24,29.93,10,4,0,0.28
2013-9-17,61.2,43.1,29.1,41.3,35.2,28.4,99,77,46,30.38,30.24,11,2,0,0.00
2013-9-18,69.3,49.3,36.3,45.9,39.9,34.1,99,75,33,30.26,30.07,12,2,0,0.00
2013-9-19,73.6,53.8,39.2,50.2,43.4,38.7,99,74,31,30.12,29.98,10,2,0,0.00
2013-9-20,80.2,60.3,43.5,54.4,49.1,43.0,99,71,32,30.08,29.91,6,2,0,0.00
2013-9-21,75.4,62.1,47.3,55.3,47.2,33.0,92,62,23,29.92,29.57,14,3,0,0.00
2013-9-22,61.9,52.9,42.6,58.4,50.7,40.7,99,92,76,29.75,29.48,15,4,0,1.02
2013-9-23,43.2,40.8,37.6,40.4,38.3,35.8,96,91,86,29.92,29.75,14,6,0,0.02
2013-9-24,46.2,41.4,36.9,40.8,37.7,35.1,97,87,81,29.91,29.81,16,5,0,0.00
2013-9-25,51.6,44.7,36.0,44.6,41.2,35.2,98,88,75,29.95,29.85,5,2,0,0.00
2013-9-26,55.0,48.4,40.5,47.6,44.2,38.9,97,86,74,30.13,29.95,9,2,0,0.00
2013-9-27,67.6,52.7,-18.0,50.3,45.6,-18.2,99,79,50,30.26,30.12,8,2,0,0.00
2013-9-28,75.6,53.5,40.6,55.7,46.1,40.3,99,80,40,30.34,30.20,6,1,0,0.00
2013-9-29,74.7,54.4,39.7,53.0,44.9,39.4,99,75,35,30.23,30.01,6,1,0,0.05
2013-9-30,77.9,54.6,39.0,53.2,44.5,38.5,99,74,31,30.08,29.90,4,1,0,0.00
2013-10-1,70.9,53.8,40.8,53.0,46.2,40.3,99,79,42,29.96,29.81,12,2,0,0.00
2013-10-2,70.2,56.9,46.0,57.7,48.2,39.0,99,76,43,29.89,29.73,18,4,0,0.00
2013-10-3,66.0,52.5,39.2,44.2,39.2,35.6,89,63,38,30.04,29.90,12,3,0,0.00
2013-10-4,64.2,51.0,40.5,47.9,42.2,37.6,96,74,45,30.08,29.99,6,1,0,0.00
2013-10-5,62.2,49.4,39.2,41.9,35.9,29.3,81,63,31,30.14,30.02,6,1,0,0.00
2013-10-6,58.5,47.1,38.8,44.6,37.2,33.2,95,70,47,30.17,30.03,10,4,0,0.21
2013-10-7,64.9,54.7,46.4,57.7,51.0,45.3,96,88,75,30.03,29.60,10,5,0,0.00
2013-10-8,59.9,42.8,32.7,37.9,34.5,30.0,90,74,40,30.34,30.04,17,5,0,0.00
2013-10-9,66.4,45.0,30.4,41.7,34.3,29.2,99,72,25,30.43,30.29,7,1,0,0.00
2013-10-10,72.7,48.9,33.4,43.3,37.7,32.4,99,71,25,30.31,30.16,6,1,0,0.00
2013-10-11,75.6,53.2,33.3,46.0,38.2,31.2,95,64,25,30.16,30.06,7,1,0,0.00
2013-10-12,67.3,53.8,45.7,52.9,47.6,41.1,97,80,60,30.32,30.16,8,3,0,0.00
2013-10-13,55.4,50.0,45.3,50.0,46.6,44.5,97,88,77,30.37,30.28,8,3,0,0.00
2013-10-14,53.2,48.1,40.1,52.1,47.4,39.8,99,97,92,30.29,30.18,4,1,0,0.17
2013-10-15,64.0,54.3,46.2,51.0,48.7,45.9,99,83,57,30.24,30.09,4,1,0,0.01
2013-10-16,61.9,53.5,49.3,50.7,46.9,42.4,89,78,63,30.09,29.76,7,4,0,0.00
2013-10-17,59.2,51.3,41.4,52.0,45.2,39.6,98,81,58,29.78,29.65,12,3,0,0.03
2013-10-18,53.2,48.0,42.3,49.7,45.0,38.1,99,90,77,29.76,29.53,19,5,0,0.33
2013-10-19,58.1,48.7,37.9,42.8,38.8,34.7,90,70,49,29.82,29.60,11,3,0,0.00
2013-10-20,51.4,45.5,38.3,42.4,33.1,23.1,88,64,34,29.87,29.53,22,7,0,0.07
2013-10-21,55.9,44.2,29.1,39.1,33.7,24.9,89,67,52,29.98,29.82,12,2,0,0.00
2013-10-22,50.0,43.0,30.4,42.0,36.4,29.9,98,79,60,29.82,29.57,11,2,0,0.18
2013-10-23,45.3,34.2,27.3,34.5,28.8,23.5,98,82,51,29.65,29.49,8,2,0,0.01
2013-10-24,36.1,32.3,27.5,29.8,25.6,20.7,90,77,63,29.69,29.50,18,7,0,0.00
2013-10-25,36.5,33.1,30.9,30.0,26.3,22.6,89,76,66,29.97,29.70,15,6,0,0.00
2013-10-26,36.7,32.3,24.6,30.8,26.7,19.8,83,79,73,29.98,29.70,8,2,0,0.01
2013-10-27,41.7,36.7,33.1,33.6,29.3,24.7,84,74,64,29.88,29.64,14,5,0,0.02
2013-10-28,36.7,31.9,20.7,33.3,25.3,16.4,91,77,64,30.26,29.86,17,4,0,0.05
2013-10-29,26.6,18.5,15.6,24.9,15.3,12.4,95,87,84,30.34,30.26,2,0,0,0.00
2013-11-1,59.9,54.5,47.1,49.5,42.7,39.2,80,65,54,29.48,29.16,21,12,0,0.00
2013-11-2,48.9,42.0,30.9,44.9,39.5,28.3,98,91,76,29.76,29.48,14,4,0,0.06
2013-11-3,32.9,25.1,16.7,28.3,18.1,11.4,92,76,50,30.35,29.76,14,4,0,0.01
2013-11-4,37.0,23.2,13.1,18.3,13.2,8.8,87,67,38,30.58,30.35,8,2,0,0.00
2013-11-5,44.6,32.2,25.3,23.6,18.1,13.4,77,57,36,30.58,30.36,11,2,0,0.00
2013-11-6,54.3,41.7,28.2,39.2,30.6,22.5,81,66,43,30.36,29.78,9,2,0,0.00
2013-11-7,50.9,40.9,29.8,48.2,37.1,26.3,95,86,67,29.79,29.60,13,6,0,0.29
2013-11-8,31.5,29.1,28.0,26.3,23.8,21.7,87,80,74,29.88,29.67,16,8,0,0.00
2013-11-9,31.6,28.3,25.9,24.0,20.4,17.9,85,72,60,30.01,29.88,14,5,0,0.00
2013-11-10,38.7,32.6,27.9,33.8,29.6,23.8,98,89,78,29.87,29.55,9,4,0,0.18
2013-11-11,32.9,30.0,27.3,31.7,28.3,25.0,98,93,87,29.91,29.65,17,4,0,0.01
2013-11-12,32.4,20.4,17.1,30.6,18.0,14.5,95,90,87,30.02,29.69,21,8,0,0.00
2013-11-13,22.3,17.6,13.1,16.5,13.0,10.7,90,82,69,30.10,29.88,18,6,0,0.00
2013-11-14,33.6,28.0,18.1,27.5,22.2,13.5,83,79,76,29.94,29.83,9,4,0,0.00
2013-11-15,46.8,37.2,26.2,26.0,23.4,20.6,90,60,35,30.07,29.97,13,4,0,0.08
2013-11-16,51.4,38.1,27.5,32.8,24.4,18.8,91,62,29,30.22,30.15,10,2,0,0.00
2013-11-17,46.0,39.8,28.8,41.5,31.3,21.7,92,72,54,30.22,29.73,13,4,0,0.01
2013-11-18,51.8,44.7,35.1,50.8,40.4,28.5,98,85,68,29.72,29.32,19,6,0,0.49
2013-11-19,35.1,27.1,24.1,28.4,19.0,15.2,79,71,61,29.81,29.46,27,13,0,0.01
2013-11-20,17.6,15.4,13.8,9.5,8.7,8.1,78,74,69,30.55,30.51,2,1,0,0.00
2013-11-21,45.3,26.7,11.7,22.5,9.8,0.9,83,55,17,30.54,30.23,7,1,0,0.00
2013-11-22,34.0,30.8,26.4,33.3,24.4,12.0,98,78,51,30.23,29.63,4,1,0,0.08
2013-11-23,35.1,23.4,13.1,34.2,19.6,8.7,98,85,76,29.74,29.55,23,9,0,0.03
2013-11-24,12.9,10.5,5.7,8.3,5.8,-1.6,85,81,70,29.94,29.57,25,11,0,0.00
2013-11-25,22.1,11.4,3.6,11.3,1.7,-6.5,79,66,33,30.14,29.94,13,4,0,0.00
2013-11-26,32.9,27.4,21.7,22.8,16.6,10.1,83,64,56,30.10,29.94,8,3,0,0.00
2013-11-27,44.8,32.7,26.8,44.0,31.1,22.9,98,94,82,29.94,29.21,16,6,0,0.41
2013-11-28,26.6,13.5,6.1,25.9,11.2,3.3,97,91,86,30.21,29.26,24,10,0,0.00
2013-11-29,16.0,6.6,-1.8,10.7,2.9,-5.9,89,84,74,30.58,30.21,8,2,0,0.00
2013-11-30,23.7,10.0,-6.9,11.8,2.8,-11.4,84,73,55,30.61,30.19,7,1,0,0.00
2013-12-1,32.4,26.4,19.2,26.4,21.6,12.0,95,82,70,30.19,29.95,5,1,0,0.00
2013-12-2,34.9,31.3,27.5,31.6,28.8,25.5,97,90,78,29.95,29.81,6,2,0,0.03
2013-12-3,42.8,33.0,28.0,33.0,28.5,22.0,98,84,64,29.85,29.77,8,2,0,0.11
2013-12-4,30.2,26.5,18.7,22.9,21.0,15.8,93,80,72,30.08,29.83,11,4,0,0.00
2013-12-5,45.5,32.2,17.8,45.2,29.1,15.9,99,88,78,30.07,29.74,9,4,0,0.01
2013-12-6,45.3,31.6,25.5,45.0,28.8,17.8,99,89,71,29.99,29.77,16,6,0,0.16
2013-12-7,25.5,19.5,12.9,19.9,10.0,4.7,79,66,52,30.27,29.96,20,7,0,0.00
2013-12-8,19.6,13.2,8.2,6.9,4.2,1.4,76,67,54,30.41,30.26,10,4,0,0.00
2013-12-9,30.4,20.4,12.7,27.6,13.9,4.7,90,76,66,30.35,29.69,14,5,0,0.00
2013-12-10,30.0,21.2,12.6,26.3,12.3,3.6,86,68,57,29.73,29.60,18,8,0,0.00
2013-12-11,18.3,12.6,6.6,10.3,6.6,1.2,80,76,66,29.94,29.73,16,6,0,0.00
2013-12-12,7.2,1.4,-7.1,1.0,-5.8,-12.9,77,71,58,30.06,29.73,11,4,0,0.00
2013-12-13,9.7,1.5,-14.1,4.8,-5.3,-19.7,80,72,63,30.21,29.62,17,5,0,0.00
2013-12-14,5.5,-5.6,-22.2,-2.7,-14.2,-28.1,76,66,51,30.42,30.12,12,2,0,0.00
2013-12-15,20.7,11.4,3.9,14.4,6.1,-2.5,82,79,74,30.10,29.35,16,5,0,0.00
2013-12-16,9.1,-0.6,-17.9,2.8,-6.7,-23.6,79,75,67,30.04,29.49,17,5,0,0.04
2013-12-17,12.9,-4.2,-25.4,3.1,-12.3,-31.2,75,68,44,30.07,29.88,8,2,0,0.00
2013-12-18,24.3,15.5,8.2,14.3,9.4,3.1,81,77,60,29.87,29.73,16,3,0,0.00
2013-12-19,27.0,21.9,12.9,21.6,16.8,8.5,83,80,73,29.94,29.74,14,4,0,0.00
2013-12-20,31.8,28.4,25.2,31.3,25.5,21.1,98,89,81,29.97,29.77,6,1,0,0.00
2013-12-21,44.1,35.1,31.8,43.8,34.8,31.3,99,99,98,29.84,29.68,6,1,0,0.99
2013-12-22,32.5,29.2,25.9,32.3,28.5,24.9,99,97,95,29.89,29.67,14,4,0,0.50
2013-12-23,32.9,29.9,20.5,32.4,29.2,19.1,98,97,94,30.00,29.86,0,0,0,0.00
2013-12-24,20.5,9.9,0.0,19.1,7.0,-3.4,94,88,81,30.06,29.95,0,0,0,0.00
2013-12-25,9.1,0.5,-6.7,1.3,-4.3,-10.0,85,80,65,30.34,30.05,0,0,0,0.00
2013-12-26,23.4,15.7,5.5,17.9,11.1,1.2,87,82,77,30.25,29.93,0,0,0,0.00
2013-12-27,22.6,18.5,16.5,17.4,14.7,12.8,88,85,80,30.04,29.95,0,0,0,0.00
2013-12-28,31.1,24.1,11.1,30.3,22.0,7.7,97,92,85,29.97,29.78,0,0,0,0.00
2013-12-29,36.3,32.3,30.4,32.8,31.0,29.9,98,95,87,29.86,29.44,0,0,0,0.00
2013-12-30,32.0,11.2,-6.7,31.5,8.7,-10.2,98,89,81,30.03,29.42,2,0,0,0.00
2013-12-31,12.4,-0.9,-6.9,1.0,-6.4,-10.2,85,77,57,30.01,29.80,0,0,0,0.00
2014-1-1,5.9,-1.5,-14.1,0.7,-7.2,-19.4,80,76,70,30.23,29.89,3,1,0,0.00
2014-1-2,7.2,-5.9,-18.0,-2.7,-12.8,-23.5,76,72,57,30.24,29.82,2,0,0,0.00